• In Hungary
  • List of Countries
  • For 7 days
  • Water Temperature
  • Satellite Maps
  • Weather Map
  • News
  • Weather Widgets
  • user-avatar
    Login

    Hourly Weather Ilebo

    Today, 19 September, Wednesday

    Time Temperature Precipitation Wind Pressure Humidity
    00:00 +22°C° 0 mm 0 mps 722 mmHg 87%
    01:00 +22°C° 0 mm 0 mps 722 mmHg 85%
    02:00 +22°C° 0 mm 0 mps 722 mmHg 85%
    03:00 +22°C° 0 mm 0 mps 722 mmHg 86%
    04:00 +22°C° 0 mm 0 mps 722 mmHg 86%
    05:00 +23°C° 0 mm 0 mps 723 mmHg 82%
    06:00 +24°C° 0 mm 0 mps 723 mmHg 78%
    07:00 +26°C° 0 mm 0 mps 723 mmHg 73%
    08:00 +29°C° 0 mm 0 mps 724 mmHg 64%
    09:00 +32°C° 0 mm 0 mps 724 mmHg 56%
    10:00 +35°C° 0 mm 0 mps 724 mmHg 47%
    11:00 +35°C° 0 mm 0 mps 723 mmHg 45%
    12:00 +35°C° 0 mm 0 mps 722 mmHg 43%
    13:00 +39°C° 0 mm 1 mps 722 mmHg 41%
    14:00 +36°C° 0 mm 1 mps 721 mmHg 45%
    15:00 +35°C° 0 mm 1 mps 721 mmHg 48%
    16:00 +34°C° 0 mm 1 mps 721 mmHg 52%
    17:00 +32°C° 0 mm 1 mps 721 mmHg 57%
    18:00 +30°C° 0 mm 1 mps 721 mmHg 62%
    19:00 +29°C° 0 mm 1 mps 721 mmHg 67%
    20:00 +28°C° 1.1 mm 1 mps 721 mmHg 73%
    21:00 +27°C° 1.1 mm 1 mps 721 mmHg 79%
    22:00 +26°C° 1.1 mm 1 mps 722 mmHg 85%
    23:00 +25°C° 0.8 mm 1 mps 722 mmHg 87%

    Tomorrow, 20 September, Thursday

    Time Temperature Precipitation Wind Pressure Humidity
    00:00 +25°C° 0.8 mm 1 mps 722 mmHg 90%
    01:00 +25°C° 0.8 mm 1 mps 722 mmHg 92%
    02:00 +25°C° 0.2 mm 1 mps 722 mmHg 93%
    03:00 +24°C° 0.2 mm 1 mps 722 mmHg 94%
    04:00 +24°C° 0.2 mm 2 mps 722 mmHg 95%
    05:00 +25°C° 0 mm 1 mps 722 mmHg 93%
    06:00 +25°C° 0 mm 1 mps 722 mmHg 91%
    07:00 +26°C° 0 mm 1 mps 722 mmHg 90%
    08:00 +28°C° 0 mm 1 mps 723 mmHg 77%
    09:00 +31°C° 0 mm 1 mps 723 mmHg 64%
    10:00 +34°C° 0 mm 1 mps 724 mmHg 51%
    11:00 +35°C° 0 mm 1 mps 723 mmHg 47%
    12:00 +37°C° 0 mm 1 mps 722 mmHg 43%
    13:00 +36°C° 0 mm 0 mps 722 mmHg 39%
    14:00 +37°C° 0 mm 1 mps 721 mmHg 43%
    15:00 +35°C° 0 mm 1 mps 720 mmHg 47%
    16:00 +34°C° 0 mm 1 mps 720 mmHg 52%
    17:00 +32°C° 0.2 mm 1 mps 720 mmHg 58%
    18:00 +30°C° 0.2 mm 1 mps 720 mmHg 65%
    19:00 +28°C° 0.2 mm 1 mps 720 mmHg 71%
    20:00 +28°C° 0.3 mm 1 mps 720 mmHg 75%
    21:00 +27°C° 0.3 mm 1 mps 721 mmHg 78%
    22:00 +26°C° 0.3 mm 1 mps 721 mmHg 81%
    23:00 +26°C° 0 mm 1 mps 720 mmHg 82%

    Day after tomorrow, 21 September, Friday

    Time Temperature Precipitation Wind Pressure Humidity
    00:00 +25°C° 0 mm 1 mps 720 mmHg 83%
    01:00 +23°C° 0 mm 0 mps 720 mmHg 83%
    02:00 +25°C° 0.1 mm 1 mps 720 mmHg 85%
    03:00 +24°C° 0.1 mm 1 mps 720 mmHg 88%
    04:00 +24°C° 0.1 mm 1 mps 720 mmHg 90%
    05:00 +25°C° 0 mm 1 mps 721 mmHg 87%
    06:00 +26°C° 0 mm 1 mps 722 mmHg 85%
    07:00 +26°C° 0 mm 1 mps 722 mmHg 82%
    08:00 +29°C° 0 mm 1 mps 723 mmHg 72%
    09:00 +32°C° 0 mm 1 mps 723 mmHg 61%
    10:00 +35°C° 0 mm 1 mps 723 mmHg 50%
    11:00 +36°C° 0 mm 1 mps 722 mmHg 46%
    12:00 +37°C° 0 mm 1 mps 721 mmHg 42%
    13:00 +40°C° 0 mm 1 mps 720 mmHg 37%
    14:00 +37°C° 0 mm 1 mps 720 mmHg 41%
    15:00 +36°C° 0 mm 1 mps 720 mmHg 44%
    16:00 +35°C° 0 mm 1 mps 719 mmHg 48%
    17:00 +33°C° 0 mm 1 mps 719 mmHg 53%
    18:00 +31°C° 0 mm 1 mps 720 mmHg 59%
    19:00 +29°C° 0 mm 1 mps 720 mmHg 65%
    20:00 +28°C° 0.7 mm 1 mps 720 mmHg 70%
    21:00 +27°C° 0.7 mm 1 mps 720 mmHg 75%
    22:00 +26°C° 0.7 mm 1 mps 721 mmHg 80%
    23:00 +26°C° 0 mm 1 mps 720 mmHg 81%

    22 September, Saturday

    Time Temperature Precipitation Wind Pressure Humidity
    00:00 +26°C° 0 mm 1 mps 720 mmHg 83%
    01:00 +25°C° 0 mm 1 mps 720 mmHg 84%
    02:00 +25°C° 0.6 mm 1 mps 720 mmHg 88%
    03:00 +24°C° 0.6 mm 1 mps 720 mmHg 91%
    04:00 +24°C° 0.6 mm 1 mps 720 mmHg 95%
    05:00 +24°C° 0.5 mm 1 mps 721 mmHg 94%
    06:00 +25°C° 0.5 mm 1 mps 722 mmHg 93%
    07:00 +23°C° 0.5 mm 0 mps 723 mmHg 91%
    08:00 +26°C° 0.6 mm 0 mps 723 mmHg 83%
    09:00 +28°C° 0.6 mm 0 mps 723 mmHg 75%
    10:00 +30°C° 0.6 mm 0 mps 723 mmHg 67%
    11:00 +33°C° 0.4 mm 1 mps 723 mmHg 61%
    12:00 +34°C° 0.4 mm 1 mps 722 mmHg 54%
    13:00 +35°C° 0.4 mm 1 mps 721 mmHg 47%
    14:00 +34°C° 0.1 mm 1 mps 721 mmHg 51%
    15:00 +34°C° 0.1 mm 1 mps 720 mmHg 54%
    16:00 +33°C° 0.1 mm 1 mps 720 mmHg 58%
    17:00 +31°C° 0 mm 1 mps 720 mmHg 64%
    18:00 +29°C° 0 mm 1 mps 721 mmHg 69%
    19:00 +25°C° 0 mm 0 mps 721 mmHg 75%
    20:00 +25°C° 0 mm 0 mps 721 mmHg 78%
    21:00 +26°C° 0 mm 1 mps 720 mmHg 81%
    22:00 +25°C° 0 mm 1 mps 720 mmHg 84%
    23:00 +25°C° 0 mm 1 mps 720 mmHg 85%

    23 September, Sunday

    Time Temperature Precipitation Wind Pressure Humidity
    00:00 +23°C° 0 mm 0 mps 720 mmHg 86%
    01:00 +23°C° 0 mm 0 mps 720 mmHg 86%
    02:00 +23°C° 0 mm 0 mps 720 mmHg 86%
    03:00 +23°C° 0 mm 0 mps 720 mmHg 86%
    04:00 +25°C° 0 mm 1 mps 720 mmHg 86%
    05:00 +25°C° 0.5 mm 1 mps 721 mmHg 87%
    06:00 +25°C° 0.5 mm 1 mps 722 mmHg 88%
    07:00 +25°C° 0.5 mm 1 mps 723 mmHg 89%
    08:00 +26°C° 0.4 mm 1 mps 723 mmHg 86%
    09:00 +27°C° 0.4 mm 1 mps 723 mmHg 83%
    10:00 +28°C° 0.4 mm 2 mps 723 mmHg 80%
    11:00 +28°C° 0.9 mm 2 mps 723 mmHg 79%
    12:00 +29°C° 0.9 mm 2 mps 722 mmHg 79%
    13:00 +29°C° 0.9 mm 3 mps 721 mmHg 78%
    14:00 +28°C° 0.4 mm 3 mps 721 mmHg 77%
    15:00 +28°C° 0.4 mm 3 mps 721 mmHg 77%
    16:00 +28°C° 0.4 mm 2 mps 721 mmHg 77%
    17:00 +27°C° 0 mm 2 mps 722 mmHg 81%
    18:00 +26°C° 0 mm 1 mps 722 mmHg 86%
    19:00 +24°C° 0 mm 1 mps 722 mmHg 90%
    20:00 +24°C° 0 mm 1 mps 722 mmHg 91%
    21:00 +24°C° 0 mm 1 mps 722 mmHg 92%
    22:00 +23°C° 0 mm 1 mps 722 mmHg 93%
    23:00 +23°C° 0 mm 1 mps 721 mmHg 93%

    24 September, Monday

    Time Temperature Precipitation Wind Pressure Humidity
    00:00 +23°C° 0 mm 1 mps 721 mmHg 93%
    01:00 +23°C° 0 mm 1 mps 720 mmHg 93%
    02:00 +22°C° 0 mm 1 mps 720 mmHg 93%
    03:00 +22°C° 0 mm 1 mps 721 mmHg 93%
    04:00 +20°C° 0 mm 0 mps 721 mmHg 93%
    05:00 +21°C° 0 mm 0 mps 722 mmHg 89%
    06:00 +22°C° 0 mm 0 mps 723 mmHg 85%
    07:00 +23°C° 0 mm 0 mps 724 mmHg 81%
    08:00 +27°C° 0 mm 1 mps 724 mmHg 72%
    09:00 +30°C° 0 mm 1 mps 724 mmHg 63%
    10:00 +32°C° 0 mm 1 mps 725 mmHg 55%
    11:00 +33°C° 0 mm 1 mps 724 mmHg 51%
    12:00 +34°C° 0 mm 1 mps 722 mmHg 47%
    13:00 +36°C° 0 mm 2 mps 721 mmHg 43%
    14:00 +34°C° 0 mm 1 mps 721 mmHg 47%
    15:00 +33°C° 0 mm 1 mps 721 mmHg 50%
    16:00 +33°C° 0 mm 1 mps 721 mmHg 53%
    17:00 +31°C° 0.1 mm 1 mps 721 mmHg 60%
    18:00 +29°C° 0.1 mm 1 mps 722 mmHg 67%
    19:00 +27°C° 0.1 mm 1 mps 722 mmHg 73%
    20:00 +26°C° 0.2 mm 1 mps 722 mmHg 77%
    21:00 +26°C° 0.2 mm 1 mps 722 mmHg 80%
    22:00 +25°C° 0.2 mm 1 mps 722 mmHg 84%
    23:00 +25°C° 0 mm 1 mps 722 mmHg 84%
    Show more